Location: Les Martinières
(47.2667°N, 1.4410°E)
Time: 00:41:32
(UTC+00:00)

Cosmos 1354 Rocket - Pass Details

Date: 15 May 2026
Orbit: 761 x 778 km, 74.0° (Epoch: 9 June)

Event Time Altitude Azimuth Distance (km) Brightness Sun altitude
Rises 21:58:13 0° 337° (NNW) 3,246 8.9 -19.0°
Reaches altitude 10° 22:00:36 10° 337° (NNW) 2,313 7.7 -19.2°
Maximum altitude 22:05:52 86° 250° (WSW) 772 3.9 -19.6°
Enters shadow 22:07:47 40° 163° (SSE) 1,110 4.3 -19.8°
